Location: Boursonne
(49.2024°N, 3.0468°E)
Time: 09:22:26
(UTC+00:00)

SPOT 3 Rocket - Pass Details

Date: 03 March 2021
Orbit: 779 x 795 km, 98.7° (Epoch: 10 April)

Event Time Altitude Azimuth Distance (km) Brightness Sun altitude
Exits shadow 20:18:41 87° 14° (NNE) 801 3.4 -27.1°
Drops below altitude 10° 20:23:52 10° 345° (NNW) 2,375 6.5 -27.9°
Sets 20:26:12 0° 346° (NNW) 3,310 7.3 -28.2°
